FREGAT DEB, 46238

Orbit data source: Space-Track

FREGAT DEB, 46238 is space debris originally from a launch on Mon, 18 Jul 2011 UTC launched from the Tyuratam Missile And Space Complex (TTMTR). Debris objects in space refer to the collection of defunct objects orbiting the Earth. Examples of debris include non-operational satellites, rocket bodies, and fragments generated from explosions, collisions, or faulty payload assembly.

Loading next visibility...
FREGAT DEB details
Identifier
46238, 2011-037JY
Orbit
Active
Last TLE update1 day ago
Origin
Flag of CISVVKO VKS (CIS)
ManufacturerLavochkin
MissionSpacecraft
Bus & MotorUnknown
MassUnknown
Launch date (UTC)
2011-07-18 (13 years ago)
Launch vehicleUnknown
Launch site
Tyuratam Missile And Space Complex (TTMTR)
Object type
Payload
Rocket body
Debris
Shape & HBRUnknown
Radar Cross SectionMedium (>0.1 m² and <1 m²)

Expand to show TLE details & history

TLE from 1 day ago
0 FREGAT DEB
1 46238U 11037JY  24345.95388909 -.00000048  00000-0  00000-0 0  9997
2 46238  50.5331 317.3920 0426455 241.1852 114.5442 10.34179242164494
Epoch: 2024-12-10T22:53Z
Definitive object data (Epoch: 2024-12-10T22:53:36.017Z)
Latitude-0°
Longitude-106.1636°
Altitude2,691.933 km
Speed6.567 km/s
True Right ascension21h 09m 34s
True Declination0° 00' 00"
Sunlit
Object was in daylight at TLE epoch
Visualization TLE readout
Latitude38.49166°
Longitude-67.41704°
Altitude2,898.115 km
Speed6.42 km/s
Apparent Right ascension02h 33m 26s
Apparent Declination18° 35' 53"
Sunlit
Object is in daylight
Visualization observer readout
Local Sidereal Time20:51:29
Azimuth78.235° E
Elevation15.177°
Doppler factor1
Orbital elements
Apogee altitude2,900.85 km
Perigee altitude2,141.806 km
Semi-major axis8,899.465 km
Eccentricity0.0426455
Inclination50.5331°
RAAN317.392°
Arg. of periapsis241.1852°
True anomaly118.88891°
Mean anomaly114.5442°
Eccentric anomaly116.72656°
Mean motion2.58522 °/min
BSTARUnknown
Orbital period139.25 mins
Loading maneuver chart data...
Loading historical data...
Loading historical data...
Loading historical data...
Loading historical data...
Loading historical data...
Loading historical data...
Loading historical data...

FREGAT DEB Visibility forecast

Observer location: undefined°, undefined

Span
Click to sort rows by Start time (UTC) header in descending order
Start Az.
Max El. time (UTC)
Max El. Az.
Max El.
End time (UTC)
End Az.
30 mins2024-12-12 00:30:27.787Z215.738° SW2024-12-12 00:45:27.787Z123.722° SE43.697°2024-12-12 01:00:27.787Z56.093° ENE
31 mins2024-12-12 02:59:27.787Z263.067° W2024-12-12 03:14:27.787Z342.225° N41.879°2024-12-12 03:30:27.787Z64.491° ENE
29 mins2024-12-12 05:31:27.787Z296.022° NW2024-12-12 05:46:27.787Z20.323° NNE41.392°2024-12-12 06:00:27.787Z94.268° ESE
28 mins2024-12-12 08:01:27.787Z303.682° NW2024-12-12 08:15:27.787Z223.425° SW44.13°2024-12-12 08:29:27.787Z140.617° SSE
18 mins2024-12-12 10:32:27.787Z284.592° WNW2024-12-12 10:41:27.787Z243.003° WSW21.601°2024-12-12 10:50:27.787Z200.164° SSW
11 mins2024-12-12 21:24:27.787Z129.915° SE2024-12-12 21:29:27.787Z109.949° ESE13.656°2024-12-12 21:35:27.787Z86.79° E
|